<?xml version="1.0" encoding="utf-8"?>
<gpx xmlns:xsi="http://www.w3.org/2001/XMLSchema-instance" xmlns:xsd="http://www.w3.org/2001/XMLSchema" version="1.1" creator="Shapelink.com" xmlns="http://www.topografix.com/GPX/1/1" xmlns:gpxtpx="http://www.garmin.com/xmlschemas/TrackPointExtension/v1">
  <metadata>
    <name>Caminar 4.28 km, 2019-08-07</name>
    <desc></desc>
    <author><name>Urban Kalla</name></author> 
    <time>1970-01-01T01:00:00Z</time>
  </metadata>
  <trk>
    <name>Caminar 4.28 km, 2019-08-07</name>
    <trkseg>
      <trkpt lat="67.855985" lon="20.22635">
        <ele>577.143</ele>
        <time>1970-01-01T01:00:00Z</time>
      </trkpt>
      <trkpt lat="67.856063" lon="20.226421">
        <ele>577.375</ele>
        <time>1970-01-01T01:00:00Z</time>
      </trkpt>
      <trkpt lat="67.856144" lon="20.226369">
        <ele>577.556</ele>
        <time>1970-01-01T01:00:00Z</time>
      </trkpt>
      <trkpt lat="67.856238" lon="20.22637">
        <ele>577.8</ele>
        <time>1970-01-01T01:00:00Z</time>
      </trkpt>
      <trkpt lat="67.856322" lon="20.226454">
        <ele>578</ele>
        <time>1970-01-01T01:00:00Z</time>
      </trkpt>
      <trkpt lat="67.856405" lon="20.226525">
        <ele>578.455</ele>
        <time>1970-01-01T01:00:00Z</time>
      </trkpt>
      <trkpt lat="67.856495" lon="20.226605">
        <ele>578.818</ele>
        <time>1970-01-01T01:00:00Z</time>
      </trkpt>
      <trkpt lat="67.856571" lon="20.226713">
        <ele>579.182</ele>
        <time>1970-01-01T01:00:00Z</time>
      </trkpt>
      <trkpt lat="67.856653" lon="20.226804">
        <ele>579.545</ele>
        <time>1970-01-01T01:00:00Z</time>
      </trkpt>
      <trkpt lat="67.856733" lon="20.226858">
        <ele>580</ele>
        <time>1970-01-01T01:00:00Z</time>
      </trkpt>
      <trkpt lat="67.856822" lon="20.226897">
        <ele>580.364</ele>
        <time>1970-01-01T01:00:00Z</time>
      </trkpt>
      <trkpt lat="67.856908" lon="20.226913">
        <ele>580.818</ele>
        <time>1970-01-01T01:00:00Z</time>
      </trkpt>
      <trkpt lat="67.85699" lon="20.226897">
        <ele>581.182</ele>
        <time>1970-01-01T01:00:00Z</time>
      </trkpt>
      <trkpt lat="67.857072" lon="20.226881">
        <ele>581.636</ele>
        <time>1970-01-01T01:00:00Z</time>
      </trkpt>
      <trkpt lat="67.857162" lon="20.226916">
        <ele>582</ele>
        <time>1970-01-01T01:00:00Z</time>
      </trkpt>
      <trkpt lat="67.857249" lon="20.226966">
        <ele>582.364</ele>
        <time>1970-01-01T01:00:00Z</time>
      </trkpt>
      <trkpt lat="67.857328" lon="20.227023">
        <ele>582.727</ele>
        <time>1970-01-01T01:00:00Z</time>
      </trkpt>
      <trkpt lat="67.857416" lon="20.227077">
        <ele>583.091</ele>
        <time>1970-01-01T01:00:00Z</time>
      </trkpt>
      <trkpt lat="67.857493" lon="20.227144">
        <ele>583.455</ele>
        <time>1970-01-01T01:00:00Z</time>
      </trkpt>
      <trkpt lat="67.857585" lon="20.227159">
        <ele>583.818</ele>
        <time>1970-01-01T01:00:00Z</time>
      </trkpt>
      <trkpt lat="67.857676" lon="20.227187">
        <ele>584.182</ele>
        <time>1970-01-01T01:00:00Z</time>
      </trkpt>
      <trkpt lat="67.857767" lon="20.227223">
        <ele>584.636</ele>
        <time>1970-01-01T01:00:00Z</time>
      </trkpt>
      <trkpt lat="67.857859" lon="20.227232">
        <ele>585.091</ele>
        <time>1970-01-01T01:00:00Z</time>
      </trkpt>
      <trkpt lat="67.857954" lon="20.227253">
        <ele>585.636</ele>
        <time>1970-01-01T01:00:00Z</time>
      </trkpt>
      <trkpt lat="67.858044" lon="20.227278">
        <ele>586.091</ele>
        <time>1970-01-01T01:00:00Z</time>
      </trkpt>
      <trkpt lat="67.858127" lon="20.227321">
        <ele>586.636</ele>
        <time>1970-01-01T01:00:00Z</time>
      </trkpt>
      <trkpt lat="67.858199" lon="20.227471">
        <ele>587.273</ele>
        <time>1970-01-01T01:00:00Z</time>
      </trkpt>
      <trkpt lat="67.858267" lon="20.227616">
        <ele>587.818</ele>
        <time>1970-01-01T01:00:00Z</time>
      </trkpt>
      <trkpt lat="67.85833" lon="20.227764">
        <ele>588.364</ele>
        <time>1970-01-01T01:00:00Z</time>
      </trkpt>
      <trkpt lat="67.858388" lon="20.227914">
        <ele>589</ele>
        <time>1970-01-01T01:00:00Z</time>
      </trkpt>
      <trkpt lat="67.858421" lon="20.228135">
        <ele>589.636</ele>
        <time>1970-01-01T01:00:00Z</time>
      </trkpt>
      <trkpt lat="67.858494" lon="20.228287">
        <ele>590.273</ele>
        <time>1970-01-01T01:00:00Z</time>
      </trkpt>
      <trkpt lat="67.858553" lon="20.228453">
        <ele>590.818</ele>
        <time>1970-01-01T01:00:00Z</time>
      </trkpt>
      <trkpt lat="67.858615" lon="20.228608">
        <ele>591.273</ele>
        <time>1970-01-01T01:00:00Z</time>
      </trkpt>
      <trkpt lat="67.858693" lon="20.228744">
        <ele>591.727</ele>
        <time>1970-01-01T01:00:00Z</time>
      </trkpt>
      <trkpt lat="67.858738" lon="20.228925">
        <ele>592.182</ele>
        <time>1970-01-01T01:00:00Z</time>
      </trkpt>
      <trkpt lat="67.858799" lon="20.229069">
        <ele>592.545</ele>
        <time>1970-01-01T01:00:00Z</time>
      </trkpt>
      <trkpt lat="67.85884" lon="20.229294">
        <ele>592.818</ele>
        <time>1970-01-01T01:00:00Z</time>
      </trkpt>
      <trkpt lat="67.858891" lon="20.229514">
        <ele>593.091</ele>
        <time>1970-01-01T01:00:00Z</time>
      </trkpt>
      <trkpt lat="67.858924" lon="20.229724">
        <ele>593.364</ele>
        <time>1970-01-01T01:00:00Z</time>
      </trkpt>
      <trkpt lat="67.858994" lon="20.229855">
        <ele>593.455</ele>
        <time>1970-01-01T01:00:00Z</time>
      </trkpt>
      <trkpt lat="67.859072" lon="20.230007">
        <ele>593.545</ele>
        <time>1970-01-01T01:00:00Z</time>
      </trkpt>
      <trkpt lat="67.859115" lon="20.230233">
        <ele>593.545</ele>
        <time>1970-01-01T01:00:00Z</time>
      </trkpt>
      <trkpt lat="67.859148" lon="20.230431">
        <ele>593.455</ele>
        <time>1970-01-01T01:00:00Z</time>
      </trkpt>
      <trkpt lat="67.85921" lon="20.230589">
        <ele>593.364</ele>
        <time>1970-01-01T01:00:00Z</time>
      </trkpt>
      <trkpt lat="67.859249" lon="20.230809">
        <ele>593.182</ele>
        <time>1970-01-01T01:00:00Z</time>
      </trkpt>
      <trkpt lat="67.859306" lon="20.231025">
        <ele>593</ele>
        <time>1970-01-01T01:00:00Z</time>
      </trkpt>
      <trkpt lat="67.859353" lon="20.231202">
        <ele>592.727</ele>
        <time>1970-01-01T01:00:00Z</time>
      </trkpt>
      <trkpt lat="67.859383" lon="20.231434">
        <ele>592.455</ele>
        <time>1970-01-01T01:00:00Z</time>
      </trkpt>
      <trkpt lat="67.859399" lon="20.231658">
        <ele>592.182</ele>
        <time>1970-01-01T01:00:00Z</time>
      </trkpt>
      <trkpt lat="67.85944" lon="20.231858">
        <ele>591.818</ele>
        <time>1970-01-01T01:00:00Z</time>
      </trkpt>
      <trkpt lat="67.859482" lon="20.23208">
        <ele>591.545</ele>
        <time>1970-01-01T01:00:00Z</time>
      </trkpt>
      <trkpt lat="67.859543" lon="20.232237">
        <ele>591.273</ele>
        <time>1970-01-01T01:00:00Z</time>
      </trkpt>
      <trkpt lat="67.859585" lon="20.232437">
        <ele>590.909</ele>
        <time>1970-01-01T01:00:00Z</time>
      </trkpt>
      <trkpt lat="67.859628" lon="20.232648">
        <ele>590.545</ele>
        <time>1970-01-01T01:00:00Z</time>
      </trkpt>
      <trkpt lat="67.859653" lon="20.232896">
        <ele>590.091</ele>
        <time>1970-01-01T01:00:00Z</time>
      </trkpt>
      <trkpt lat="67.859697" lon="20.233095">
        <ele>589.636</ele>
        <time>1970-01-01T01:00:00Z</time>
      </trkpt>
      <trkpt lat="67.859765" lon="20.233228">
        <ele>589.091</ele>
        <time>1970-01-01T01:00:00Z</time>
      </trkpt>
      <trkpt lat="67.859851" lon="20.233302">
        <ele>588.636</ele>
        <time>1970-01-01T01:00:00Z</time>
      </trkpt>
      <trkpt lat="67.859927" lon="20.233385">
        <ele>588.091</ele>
        <time>1970-01-01T01:00:00Z</time>
      </trkpt>
      <trkpt lat="67.859992" lon="20.233531">
        <ele>587.545</ele>
        <time>1970-01-01T01:00:00Z</time>
      </trkpt>
      <trkpt lat="67.860055" lon="20.233726">
        <ele>587</ele>
        <time>1970-01-01T01:00:00Z</time>
      </trkpt>
      <trkpt lat="67.860121" lon="20.233918">
        <ele>586.455</ele>
        <time>1970-01-01T01:00:00Z</time>
      </trkpt>
      <trkpt lat="67.860172" lon="20.234126">
        <ele>585.909</ele>
        <time>1970-01-01T01:00:00Z</time>
      </trkpt>
      <trkpt lat="67.860221" lon="20.234306">
        <ele>585.364</ele>
        <time>1970-01-01T01:00:00Z</time>
      </trkpt>
      <trkpt lat="67.860206" lon="20.234562">
        <ele>584.909</ele>
        <time>1970-01-01T01:00:00Z</time>
      </trkpt>
      <trkpt lat="67.860244" lon="20.234911">
        <ele>584.455</ele>
        <time>1970-01-01T01:00:00Z</time>
      </trkpt>
      <trkpt lat="67.860224" lon="20.235135">
        <ele>584</ele>
        <time>1970-01-01T01:00:00Z</time>
      </trkpt>
      <trkpt lat="67.860222" lon="20.235376">
        <ele>583.636</ele>
        <time>1970-01-01T01:00:00Z</time>
      </trkpt>
      <trkpt lat="67.860253" lon="20.23558">
        <ele>583.182</ele>
        <time>1970-01-01T01:00:00Z</time>
      </trkpt>
      <trkpt lat="67.860287" lon="20.235779">
        <ele>582.818</ele>
        <time>1970-01-01T01:00:00Z</time>
      </trkpt>
      <trkpt lat="67.86031" lon="20.236016">
        <ele>582.455</ele>
        <time>1970-01-01T01:00:00Z</time>
      </trkpt>
      <trkpt lat="67.860345" lon="20.236249">
        <ele>582.182</ele>
        <time>1970-01-01T01:00:00Z</time>
      </trkpt>
      <trkpt lat="67.860323" lon="20.236471">
        <ele>581.909</ele>
        <time>1970-01-01T01:00:00Z</time>
      </trkpt>
      <trkpt lat="67.86033" lon="20.236721">
        <ele>581.636</ele>
        <time>1970-01-01T01:00:00Z</time>
      </trkpt>
      <trkpt lat="67.860303" lon="20.236982">
        <ele>581.364</ele>
        <time>1970-01-01T01:00:00Z</time>
      </trkpt>
      <trkpt lat="67.860289" lon="20.237202">
        <ele>581.091</ele>
        <time>1970-01-01T01:00:00Z</time>
      </trkpt>
      <trkpt lat="67.860293" lon="20.237422">
        <ele>580.909</ele>
        <time>1970-01-01T01:00:00Z</time>
      </trkpt>
      <trkpt lat="67.86027" lon="20.237663">
        <ele>580.636</ele>
        <time>1970-01-01T01:00:00Z</time>
      </trkpt>
      <trkpt lat="67.860279" lon="20.237892">
        <ele>580.364</ele>
        <time>1970-01-01T01:00:00Z</time>
      </trkpt>
      <trkpt lat="67.860285" lon="20.238128">
        <ele>580.182</ele>
        <time>1970-01-01T01:00:00Z</time>
      </trkpt>
      <trkpt lat="67.860303" lon="20.238345">
        <ele>580</ele>
        <time>1970-01-01T01:00:00Z</time>
      </trkpt>
      <trkpt lat="67.860338" lon="20.238566">
        <ele>579.818</ele>
        <time>1970-01-01T01:00:00Z</time>
      </trkpt>
      <trkpt lat="67.860376" lon="20.238756">
        <ele>579.636</ele>
        <time>1970-01-01T01:00:00Z</time>
      </trkpt>
      <trkpt lat="67.860382" lon="20.239004">
        <ele>579.455</ele>
        <time>1970-01-01T01:00:00Z</time>
      </trkpt>
      <trkpt lat="67.860408" lon="20.23921">
        <ele>579.273</ele>
        <time>1970-01-01T01:00:00Z</time>
      </trkpt>
      <trkpt lat="67.860435" lon="20.239416">
        <ele>579.182</ele>
        <time>1970-01-01T01:00:00Z</time>
      </trkpt>
      <trkpt lat="67.86041" lon="20.239662">
        <ele>579.091</ele>
        <time>1970-01-01T01:00:00Z</time>
      </trkpt>
      <trkpt lat="67.860391" lon="20.239897">
        <ele>579</ele>
        <time>1970-01-01T01:00:00Z</time>
      </trkpt>
      <trkpt lat="67.860379" lon="20.240146">
        <ele>579</ele>
        <time>1970-01-01T01:00:00Z</time>
      </trkpt>
      <trkpt lat="67.860351" lon="20.240368">
        <ele>578.909</ele>
        <time>1970-01-01T01:00:00Z</time>
      </trkpt>
      <trkpt lat="67.860329" lon="20.240611">
        <ele>578.818</ele>
        <time>1970-01-01T01:00:00Z</time>
      </trkpt>
      <trkpt lat="67.8603" lon="20.24083">
        <ele>578.636</ele>
        <time>1970-01-01T01:00:00Z</time>
      </trkpt>
      <trkpt lat="67.860274" lon="20.241054">
        <ele>578.455</ele>
        <time>1970-01-01T01:00:00Z</time>
      </trkpt>
      <trkpt lat="67.860254" lon="20.241289">
        <ele>578.182</ele>
        <time>1970-01-01T01:00:00Z</time>
      </trkpt>
      <trkpt lat="67.860265" lon="20.24151">
        <ele>577.909</ele>
        <time>1970-01-01T01:00:00Z</time>
      </trkpt>
      <trkpt lat="67.860286" lon="20.241782">
        <ele>577.636</ele>
        <time>1970-01-01T01:00:00Z</time>
      </trkpt>
      <trkpt lat="67.860306" lon="20.242031">
        <ele>577.273</ele>
        <time>1970-01-01T01:00:00Z</time>
      </trkpt>
      <trkpt lat="67.860331" lon="20.242243">
        <ele>576.818</ele>
        <time>1970-01-01T01:00:00Z</time>
      </trkpt>
      <trkpt lat="67.86033" lon="20.242472">
        <ele>576.182</ele>
        <time>1970-01-01T01:00:00Z</time>
      </trkpt>
      <trkpt lat="67.860313" lon="20.242695">
        <ele>575.455</ele>
        <time>1970-01-01T01:00:00Z</time>
      </trkpt>
      <trkpt lat="67.860318" lon="20.242909">
        <ele>574.727</ele>
        <time>1970-01-01T01:00:00Z</time>
      </trkpt>
      <trkpt lat="67.860347" lon="20.24316">
        <ele>573.909</ele>
        <time>1970-01-01T01:00:00Z</time>
      </trkpt>
      <trkpt lat="67.860401" lon="20.243356">
        <ele>573</ele>
        <time>1970-01-01T01:00:00Z</time>
      </trkpt>
      <trkpt lat="67.860448" lon="20.243563">
        <ele>572</ele>
        <time>1970-01-01T01:00:00Z</time>
      </trkpt>
      <trkpt lat="67.860496" lon="20.243756">
        <ele>570.909</ele>
        <time>1970-01-01T01:00:00Z</time>
      </trkpt>
      <trkpt lat="67.860531" lon="20.243959">
        <ele>569.636</ele>
        <time>1970-01-01T01:00:00Z</time>
      </trkpt>
      <trkpt lat="67.860595" lon="20.244112">
        <ele>568.273</ele>
        <time>1970-01-01T01:00:00Z</time>
      </trkpt>
      <trkpt lat="67.860663" lon="20.244255">
        <ele>566.818</ele>
        <time>1970-01-01T01:00:00Z</time>
      </trkpt>
      <trkpt lat="67.860732" lon="20.244424">
        <ele>565.364</ele>
        <time>1970-01-01T01:00:00Z</time>
      </trkpt>
      <trkpt lat="67.860787" lon="20.244586">
        <ele>564.091</ele>
        <time>1970-01-01T01:00:00Z</time>
      </trkpt>
      <trkpt lat="67.860868" lon="20.24474">
        <ele>562.818</ele>
        <time>1970-01-01T01:00:00Z</time>
      </trkpt>
      <trkpt lat="67.860942" lon="20.244886">
        <ele>561.727</ele>
        <time>1970-01-01T01:00:00Z</time>
      </trkpt>
      <trkpt lat="67.861018" lon="20.244973">
        <ele>560.636</ele>
        <time>1970-01-01T01:00:00Z</time>
      </trkpt>
      <trkpt lat="67.861082" lon="20.245142">
        <ele>559.545</ele>
        <time>1970-01-01T01:00:00Z</time>
      </trkpt>
      <trkpt lat="67.861093" lon="20.245359">
        <ele>558.455</ele>
        <time>1970-01-01T01:00:00Z</time>
      </trkpt>
      <trkpt lat="67.861079" lon="20.245592">
        <ele>557.545</ele>
        <time>1970-01-01T01:00:00Z</time>
      </trkpt>
      <trkpt lat="67.861051" lon="20.245799">
        <ele>556.727</ele>
        <time>1970-01-01T01:00:00Z</time>
      </trkpt>
      <trkpt lat="67.861102" lon="20.24599">
        <ele>556</ele>
        <time>1970-01-01T01:00:00Z</time>
      </trkpt>
      <trkpt lat="67.861159" lon="20.246157">
        <ele>555.455</ele>
        <time>1970-01-01T01:00:00Z</time>
      </trkpt>
      <trkpt lat="67.861198" lon="20.246361">
        <ele>555</ele>
        <time>1970-01-01T01:00:00Z</time>
      </trkpt>
      <trkpt lat="67.861256" lon="20.24652">
        <ele>554.545</ele>
        <time>1970-01-01T01:00:00Z</time>
      </trkpt>
      <trkpt lat="67.861321" lon="20.246683">
        <ele>554.182</ele>
        <time>1970-01-01T01:00:00Z</time>
      </trkpt>
      <trkpt lat="67.861396" lon="20.246856">
        <ele>553.727</ele>
        <time>1970-01-01T01:00:00Z</time>
      </trkpt>
      <trkpt lat="67.861476" lon="20.246971">
        <ele>553.273</ele>
        <time>1970-01-01T01:00:00Z</time>
      </trkpt>
      <trkpt lat="67.861553" lon="20.247105">
        <ele>553</ele>
        <time>1970-01-01T01:00:00Z</time>
      </trkpt>
      <trkpt lat="67.861637" lon="20.247203">
        <ele>552.909</ele>
        <time>1970-01-01T01:00:00Z</time>
      </trkpt>
      <trkpt lat="67.861724" lon="20.247282">
        <ele>552.727</ele>
        <time>1970-01-01T01:00:00Z</time>
      </trkpt>
      <trkpt lat="67.861801" lon="20.247381">
        <ele>552.636</ele>
        <time>1970-01-01T01:00:00Z</time>
      </trkpt>
      <trkpt lat="67.861877" lon="20.247476">
        <ele>552.545</ele>
        <time>1970-01-01T01:00:00Z</time>
      </trkpt>
      <trkpt lat="67.861943" lon="20.247604">
        <ele>552.455</ele>
        <time>1970-01-01T01:00:00Z</time>
      </trkpt>
      <trkpt lat="67.86202" lon="20.247723">
        <ele>552.364</ele>
        <time>1970-01-01T01:00:00Z</time>
      </trkpt>
      <trkpt lat="67.8621" lon="20.247839">
        <ele>552.273</ele>
        <time>1970-01-01T01:00:00Z</time>
      </trkpt>
      <trkpt lat="67.862175" lon="20.247975">
        <ele>552.091</ele>
        <time>1970-01-01T01:00:00Z</time>
      </trkpt>
      <trkpt lat="67.862233" lon="20.248141">
        <ele>551.909</ele>
        <time>1970-01-01T01:00:00Z</time>
      </trkpt>
      <trkpt lat="67.862297" lon="20.248296">
        <ele>551.818</ele>
        <time>1970-01-01T01:00:00Z</time>
      </trkpt>
      <trkpt lat="67.862362" lon="20.248442">
        <ele>551.818</ele>
        <time>1970-01-01T01:00:00Z</time>
      </trkpt>
      <trkpt lat="67.862426" lon="20.248613">
        <ele>551.727</ele>
        <time>1970-01-01T01:00:00Z</time>
      </trkpt>
      <trkpt lat="67.862483" lon="20.248792">
        <ele>551.727</ele>
        <time>1970-01-01T01:00:00Z</time>
      </trkpt>
      <trkpt lat="67.862526" lon="20.248992">
        <ele>551.727</ele>
        <time>1970-01-01T01:00:00Z</time>
      </trkpt>
      <trkpt lat="67.862588" lon="20.249157">
        <ele>551.818</ele>
        <time>1970-01-01T01:00:00Z</time>
      </trkpt>
      <trkpt lat="67.862647" lon="20.24934">
        <ele>551.818</ele>
        <time>1970-01-01T01:00:00Z</time>
      </trkpt>
      <trkpt lat="67.862703" lon="20.24953">
        <ele>551.818</ele>
        <time>1970-01-01T01:00:00Z</time>
      </trkpt>
      <trkpt lat="67.862751" lon="20.249714">
        <ele>551.909</ele>
        <time>1970-01-01T01:00:00Z</time>
      </trkpt>
      <trkpt lat="67.862799" lon="20.249924">
        <ele>552.091</ele>
        <time>1970-01-01T01:00:00Z</time>
      </trkpt>
      <trkpt lat="67.862834" lon="20.250134">
        <ele>552.273</ele>
        <time>1970-01-01T01:00:00Z</time>
      </trkpt>
      <trkpt lat="67.862884" lon="20.250344">
        <ele>552.545</ele>
        <time>1970-01-01T01:00:00Z</time>
      </trkpt>
      <trkpt lat="67.86292" lon="20.250551">
        <ele>552.818</ele>
        <time>1970-01-01T01:00:00Z</time>
      </trkpt>
      <trkpt lat="67.862943" lon="20.250764">
        <ele>553.182</ele>
        <time>1970-01-01T01:00:00Z</time>
      </trkpt>
      <trkpt lat="67.862987" lon="20.250951">
        <ele>553.636</ele>
        <time>1970-01-01T01:00:00Z</time>
      </trkpt>
      <trkpt lat="67.86304" lon="20.251151">
        <ele>554.182</ele>
        <time>1970-01-01T01:00:00Z</time>
      </trkpt>
      <trkpt lat="67.86306" lon="20.251376">
        <ele>554.727</ele>
        <time>1970-01-01T01:00:00Z</time>
      </trkpt>
      <trkpt lat="67.863033" lon="20.251591">
        <ele>555.364</ele>
        <time>1970-01-01T01:00:00Z</time>
      </trkpt>
      <trkpt lat="67.862984" lon="20.251768">
        <ele>556.091</ele>
        <time>1970-01-01T01:00:00Z</time>
      </trkpt>
      <trkpt lat="67.862953" lon="20.251977">
        <ele>556.727</ele>
        <time>1970-01-01T01:00:00Z</time>
      </trkpt>
      <trkpt lat="67.862946" lon="20.252208">
        <ele>557.364</ele>
        <time>1970-01-01T01:00:00Z</time>
      </trkpt>
      <trkpt lat="67.862957" lon="20.252437">
        <ele>558</ele>
        <time>1970-01-01T01:00:00Z</time>
      </trkpt>
      <trkpt lat="67.862989" lon="20.252635">
        <ele>558.545</ele>
        <time>1970-01-01T01:00:00Z</time>
      </trkpt>
      <trkpt lat="67.863033" lon="20.252842">
        <ele>559.091</ele>
        <time>1970-01-01T01:00:00Z</time>
      </trkpt>
      <trkpt lat="67.863023" lon="20.253058">
        <ele>559.545</ele>
        <time>1970-01-01T01:00:00Z</time>
      </trkpt>
      <trkpt lat="67.863055" lon="20.253269">
        <ele>560</ele>
        <time>1970-01-01T01:00:00Z</time>
      </trkpt>
      <trkpt lat="67.863058" lon="20.253511">
        <ele>560.455</ele>
        <time>1970-01-01T01:00:00Z</time>
      </trkpt>
      <trkpt lat="67.863036" lon="20.25372">
        <ele>560.818</ele>
        <time>1970-01-01T01:00:00Z</time>
      </trkpt>
      <trkpt lat="67.862995" lon="20.25393">
        <ele>561.273</ele>
        <time>1970-01-01T01:00:00Z</time>
      </trkpt>
      <trkpt lat="67.862921" lon="20.254112">
        <ele>561.636</ele>
        <time>1970-01-01T01:00:00Z</time>
      </trkpt>
      <trkpt lat="67.862867" lon="20.254285">
        <ele>562</ele>
        <time>1970-01-01T01:00:00Z</time>
      </trkpt>
      <trkpt lat="67.862814" lon="20.254464">
        <ele>562.364</ele>
        <time>1970-01-01T01:00:00Z</time>
      </trkpt>
      <trkpt lat="67.862784" lon="20.254677">
        <ele>562.636</ele>
        <time>1970-01-01T01:00:00Z</time>
      </trkpt>
      <trkpt lat="67.862726" lon="20.254839">
        <ele>563</ele>
        <time>1970-01-01T01:00:00Z</time>
      </trkpt>
      <trkpt lat="67.862666" lon="20.255007">
        <ele>563.273</ele>
        <time>1970-01-01T01:00:00Z</time>
      </trkpt>
      <trkpt lat="67.862604" lon="20.255189">
        <ele>563.455</ele>
        <time>1970-01-01T01:00:00Z</time>
      </trkpt>
      <trkpt lat="67.862577" lon="20.2554">
        <ele>563.545</ele>
        <time>1970-01-01T01:00:00Z</time>
      </trkpt>
      <trkpt lat="67.862542" lon="20.255632">
        <ele>563.545</ele>
        <time>1970-01-01T01:00:00Z</time>
      </trkpt>
      <trkpt lat="67.862473" lon="20.255764">
        <ele>563.545</ele>
        <time>1970-01-01T01:00:00Z</time>
      </trkpt>
      <trkpt lat="67.862402" lon="20.255923">
        <ele>563.545</ele>
        <time>1970-01-01T01:00:00Z</time>
      </trkpt>
      <trkpt lat="67.862366" lon="20.256131">
        <ele>563.545</ele>
        <time>1970-01-01T01:00:00Z</time>
      </trkpt>
      <trkpt lat="67.862311" lon="20.256315">
        <ele>563.545</ele>
        <time>1970-01-01T01:00:00Z</time>
      </trkpt>
      <trkpt lat="67.86224" lon="20.256467">
        <ele>563.545</ele>
        <time>1970-01-01T01:00:00Z</time>
      </trkpt>
      <trkpt lat="67.86221" lon="20.256685">
        <ele>563.636</ele>
        <time>1970-01-01T01:00:00Z</time>
      </trkpt>
      <trkpt lat="67.862132" lon="20.256779">
        <ele>563.636</ele>
        <time>1970-01-01T01:00:00Z</time>
      </trkpt>
      <trkpt lat="67.862064" lon="20.256949">
        <ele>563.636</ele>
        <time>1970-01-01T01:00:00Z</time>
      </trkpt>
      <trkpt lat="67.862007" lon="20.257116">
        <ele>563.818</ele>
        <time>1970-01-01T01:00:00Z</time>
      </trkpt>
      <trkpt lat="67.861929" lon="20.257257">
        <ele>564</ele>
        <time>1970-01-01T01:00:00Z</time>
      </trkpt>
      <trkpt lat="67.861862" lon="20.257427">
        <ele>564.182</ele>
        <time>1970-01-01T01:00:00Z</time>
      </trkpt>
      <trkpt lat="67.861802" lon="20.257591">
        <ele>564.364</ele>
        <time>1970-01-01T01:00:00Z</time>
      </trkpt>
      <trkpt lat="67.861732" lon="20.257745">
        <ele>564.455</ele>
        <time>1970-01-01T01:00:00Z</time>
      </trkpt>
      <trkpt lat="67.861662" lon="20.257883">
        <ele>564.545</ele>
        <time>1970-01-01T01:00:00Z</time>
      </trkpt>
      <trkpt lat="67.861592" lon="20.258045">
        <ele>564.545</ele>
        <time>1970-01-01T01:00:00Z</time>
      </trkpt>
      <trkpt lat="67.861537" lon="20.258222">
        <ele>564.545</ele>
        <time>1970-01-01T01:00:00Z</time>
      </trkpt>
      <trkpt lat="67.861474" lon="20.258388">
        <ele>564.455</ele>
        <time>1970-01-01T01:00:00Z</time>
      </trkpt>
      <trkpt lat="67.861396" lon="20.258544">
        <ele>564.364</ele>
        <time>1970-01-01T01:00:00Z</time>
      </trkpt>
      <trkpt lat="67.861325" lon="20.258707">
        <ele>564.182</ele>
        <time>1970-01-01T01:00:00Z</time>
      </trkpt>
      <trkpt lat="67.861253" lon="20.25881">
        <ele>563.909</ele>
        <time>1970-01-01T01:00:00Z</time>
      </trkpt>
      <trkpt lat="67.861161" lon="20.258927">
        <ele>563.545</ele>
        <time>1970-01-01T01:00:00Z</time>
      </trkpt>
      <trkpt lat="67.861083" lon="20.259086">
        <ele>563.091</ele>
        <time>1970-01-01T01:00:00Z</time>
      </trkpt>
      <trkpt lat="67.861017" lon="20.259267">
        <ele>562.545</ele>
        <time>1970-01-01T01:00:00Z</time>
      </trkpt>
      <trkpt lat="67.860955" lon="20.259415">
        <ele>561.909</ele>
        <time>1970-01-01T01:00:00Z</time>
      </trkpt>
      <trkpt lat="67.860891" lon="20.259562">
        <ele>561.273</ele>
        <time>1970-01-01T01:00:00Z</time>
      </trkpt>
      <trkpt lat="67.860824" lon="20.259739">
        <ele>560.636</ele>
        <time>1970-01-01T01:00:00Z</time>
      </trkpt>
      <trkpt lat="67.860762" lon="20.259893">
        <ele>560</ele>
        <time>1970-01-01T01:00:00Z</time>
      </trkpt>
      <trkpt lat="67.860681" lon="20.259985">
        <ele>559.455</ele>
        <time>1970-01-01T01:00:00Z</time>
      </trkpt>
      <trkpt lat="67.860618" lon="20.260155">
        <ele>558.818</ele>
        <time>1970-01-01T01:00:00Z</time>
      </trkpt>
      <trkpt lat="67.860566" lon="20.260333">
        <ele>558.182</ele>
        <time>1970-01-01T01:00:00Z</time>
      </trkpt>
      <trkpt lat="67.860524" lon="20.260518">
        <ele>557.455</ele>
        <time>1970-01-01T01:00:00Z</time>
      </trkpt>
      <trkpt lat="67.860444" lon="20.260478">
        <ele>556.909</ele>
        <time>1970-01-01T01:00:00Z</time>
      </trkpt>
      <trkpt lat="67.860372" lon="20.260645">
        <ele>556.455</ele>
        <time>1970-01-01T01:00:00Z</time>
      </trkpt>
      <trkpt lat="67.860303" lon="20.260811">
        <ele>556.091</ele>
        <time>1970-01-01T01:00:00Z</time>
      </trkpt>
      <trkpt lat="67.860241" lon="20.260952">
        <ele>555.818</ele>
        <time>1970-01-01T01:00:00Z</time>
      </trkpt>
      <trkpt lat="67.860173" lon="20.261091">
        <ele>555.545</ele>
        <time>1970-01-01T01:00:00Z</time>
      </trkpt>
      <trkpt lat="67.860086" lon="20.261073">
        <ele>555.364</ele>
        <time>1970-01-01T01:00:00Z</time>
      </trkpt>
      <trkpt lat="67.860003" lon="20.261103">
        <ele>555.273</ele>
        <time>1970-01-01T01:00:00Z</time>
      </trkpt>
      <trkpt lat="67.859908" lon="20.261095">
        <ele>555.182</ele>
        <time>1970-01-01T01:00:00Z</time>
      </trkpt>
      <trkpt lat="67.859828" lon="20.26114">
        <ele>555.182</ele>
        <time>1970-01-01T01:00:00Z</time>
      </trkpt>
      <trkpt lat="67.859746" lon="20.261212">
        <ele>555.273</ele>
        <time>1970-01-01T01:00:00Z</time>
      </trkpt>
      <trkpt lat="67.859645" lon="20.261158">
        <ele>555.455</ele>
        <time>1970-01-01T01:00:00Z</time>
      </trkpt>
      <trkpt lat="67.859544" lon="20.261103">
        <ele>555.545</ele>
        <time>1970-01-01T01:00:00Z</time>
      </trkpt>
      <trkpt lat="67.859463" lon="20.261113">
        <ele>555.545</ele>
        <time>1970-01-01T01:00:00Z</time>
      </trkpt>
      <trkpt lat="67.859374" lon="20.261108">
        <ele>555.545</ele>
        <time>1970-01-01T01:00:00Z</time>
      </trkpt>
      <trkpt lat="67.859289" lon="20.261131">
        <ele>555.545</ele>
        <time>1970-01-01T01:00:00Z</time>
      </trkpt>
      <trkpt lat="67.859202" lon="20.261178">
        <ele>555.455</ele>
        <time>1970-01-01T01:00:00Z</time>
      </trkpt>
      <trkpt lat="67.859114" lon="20.261147">
        <ele>555.364</ele>
        <time>1970-01-01T01:00:00Z</time>
      </trkpt>
      <trkpt lat="67.859015" lon="20.261123">
        <ele>555.182</ele>
        <time>1970-01-01T01:00:00Z</time>
      </trkpt>
      <trkpt lat="67.858923" lon="20.261133">
        <ele>555</ele>
        <time>1970-01-01T01:00:00Z</time>
      </trkpt>
      <trkpt lat="67.858838" lon="20.261119">
        <ele>554.818</ele>
        <time>1970-01-01T01:00:00Z</time>
      </trkpt>
      <trkpt lat="67.858756" lon="20.261126">
        <ele>554.636</ele>
        <time>1970-01-01T01:00:00Z</time>
      </trkpt>
      <trkpt lat="67.858679" lon="20.261006">
        <ele>554.455</ele>
        <time>1970-01-01T01:00:00Z</time>
      </trkpt>
      <trkpt lat="67.858595" lon="20.260938">
        <ele>554.273</ele>
        <time>1970-01-01T01:00:00Z</time>
      </trkpt>
      <trkpt lat="67.858519" lon="20.260832">
        <ele>554.182</ele>
        <time>1970-01-01T01:00:00Z</time>
      </trkpt>
      <trkpt lat="67.858439" lon="20.260743">
        <ele>554.091</ele>
        <time>1970-01-01T01:00:00Z</time>
      </trkpt>
      <trkpt lat="67.858366" lon="20.260646">
        <ele>554</ele>
        <time>1970-01-01T01:00:00Z</time>
      </trkpt>
      <trkpt lat="67.858297" lon="20.260513">
        <ele>554</ele>
        <time>1970-01-01T01:00:00Z</time>
      </trkpt>
      <trkpt lat="67.858257" lon="20.260291">
        <ele>554.091</ele>
        <time>1970-01-01T01:00:00Z</time>
      </trkpt>
      <trkpt lat="67.858205" lon="20.260095">
        <ele>554.182</ele>
        <time>1970-01-01T01:00:00Z</time>
      </trkpt>
      <trkpt lat="67.858153" lon="20.259926">
        <ele>554.273</ele>
        <time>1970-01-01T01:00:00Z</time>
      </trkpt>
      <trkpt lat="67.85809" lon="20.259787">
        <ele>554.364</ele>
        <time>1970-01-01T01:00:00Z</time>
      </trkpt>
      <trkpt lat="67.858038" lon="20.259568">
        <ele>554.545</ele>
        <time>1970-01-01T01:00:00Z</time>
      </trkpt>
      <trkpt lat="67.857988" lon="20.25935">
        <ele>554.818</ele>
        <time>1970-01-01T01:00:00Z</time>
      </trkpt>
      <trkpt lat="67.857957" lon="20.259093">
        <ele>555.091</ele>
        <time>1970-01-01T01:00:00Z</time>
      </trkpt>
      <trkpt lat="67.857944" lon="20.258838">
        <ele>555.455</ele>
        <time>1970-01-01T01:00:00Z</time>
      </trkpt>
      <trkpt lat="67.857937" lon="20.2586">
        <ele>555.818</ele>
        <time>1970-01-01T01:00:00Z</time>
      </trkpt>
      <trkpt lat="67.85793" lon="20.25838">
        <ele>556.273</ele>
        <time>1970-01-01T01:00:00Z</time>
      </trkpt>
      <trkpt lat="67.857953" lon="20.258143">
        <ele>556.727</ele>
        <time>1970-01-01T01:00:00Z</time>
      </trkpt>
      <trkpt lat="67.857955" lon="20.257915">
        <ele>557.091</ele>
        <time>1970-01-01T01:00:00Z</time>
      </trkpt>
      <trkpt lat="67.857961" lon="20.257691">
        <ele>557.545</ele>
        <time>1970-01-01T01:00:00Z</time>
      </trkpt>
      <trkpt lat="67.857947" lon="20.257439">
        <ele>558</ele>
        <time>1970-01-01T01:00:00Z</time>
      </trkpt>
      <trkpt lat="67.857929" lon="20.257215">
        <ele>558.545</ele>
        <time>1970-01-01T01:00:00Z</time>
      </trkpt>
      <trkpt lat="67.857911" lon="20.257">
        <ele>559.091</ele>
        <time>1970-01-01T01:00:00Z</time>
      </trkpt>
      <trkpt lat="67.857897" lon="20.256764">
        <ele>559.545</ele>
        <time>1970-01-01T01:00:00Z</time>
      </trkpt>
      <trkpt lat="67.857883" lon="20.256528">
        <ele>560.091</ele>
        <time>1970-01-01T01:00:00Z</time>
      </trkpt>
      <trkpt lat="67.857865" lon="20.256293">
        <ele>560.545</ele>
        <time>1970-01-01T01:00:00Z</time>
      </trkpt>
      <trkpt lat="67.85786" lon="20.256072">
        <ele>561.091</ele>
        <time>1970-01-01T01:00:00Z</time>
      </trkpt>
      <trkpt lat="67.857874" lon="20.25586">
        <ele>561.545</ele>
        <time>1970-01-01T01:00:00Z</time>
      </trkpt>
      <trkpt lat="67.857888" lon="20.255636">
        <ele>562</ele>
        <time>1970-01-01T01:00:00Z</time>
      </trkpt>
      <trkpt lat="67.857883" lon="20.255405">
        <ele>562.545</ele>
        <time>1970-01-01T01:00:00Z</time>
      </trkpt>
      <trkpt lat="67.857872" lon="20.255172">
        <ele>563</ele>
        <time>1970-01-01T01:00:00Z</time>
      </trkpt>
      <trkpt lat="67.857872" lon="20.254935">
        <ele>563.455</ele>
        <time>1970-01-01T01:00:00Z</time>
      </trkpt>
      <trkpt lat="67.857893" lon="20.254716">
        <ele>563.909</ele>
        <time>1970-01-01T01:00:00Z</time>
      </trkpt>
      <trkpt lat="67.857918" lon="20.254501">
        <ele>564.273</ele>
        <time>1970-01-01T01:00:00Z</time>
      </trkpt>
      <trkpt lat="67.857932" lon="20.254275">
        <ele>564.727</ele>
        <time>1970-01-01T01:00:00Z</time>
      </trkpt>
      <trkpt lat="67.857932" lon="20.254037">
        <ele>565.091</ele>
        <time>1970-01-01T01:00:00Z</time>
      </trkpt>
      <trkpt lat="67.857956" lon="20.253824">
        <ele>565.545</ele>
        <time>1970-01-01T01:00:00Z</time>
      </trkpt>
      <trkpt lat="67.857962" lon="20.253599">
        <ele>565.909</ele>
        <time>1970-01-01T01:00:00Z</time>
      </trkpt>
      <trkpt lat="67.857983" lon="20.253388">
        <ele>566.364</ele>
        <time>1970-01-01T01:00:00Z</time>
      </trkpt>
      <trkpt lat="67.858042" lon="20.253201">
        <ele>566.818</ele>
        <time>1970-01-01T01:00:00Z</time>
      </trkpt>
      <trkpt lat="67.858094" lon="20.253032">
        <ele>567.182</ele>
        <time>1970-01-01T01:00:00Z</time>
      </trkpt>
      <trkpt lat="67.858144" lon="20.252851">
        <ele>567.636</ele>
        <time>1970-01-01T01:00:00Z</time>
      </trkpt>
      <trkpt lat="67.858206" lon="20.252674">
        <ele>568.091</ele>
        <time>1970-01-01T01:00:00Z</time>
      </trkpt>
      <trkpt lat="67.858253" lon="20.252499">
        <ele>568.455</ele>
        <time>1970-01-01T01:00:00Z</time>
      </trkpt>
      <trkpt lat="67.858288" lon="20.252295">
        <ele>568.818</ele>
        <time>1970-01-01T01:00:00Z</time>
      </trkpt>
      <trkpt lat="67.858344" lon="20.252134">
        <ele>569.091</ele>
        <time>1970-01-01T01:00:00Z</time>
      </trkpt>
      <trkpt lat="67.858382" lon="20.251937">
        <ele>569.455</ele>
        <time>1970-01-01T01:00:00Z</time>
      </trkpt>
      <trkpt lat="67.858453" lon="20.251761">
        <ele>569.727</ele>
        <time>1970-01-01T01:00:00Z</time>
      </trkpt>
      <trkpt lat="67.858525" lon="20.251632">
        <ele>569.909</ele>
        <time>1970-01-01T01:00:00Z</time>
      </trkpt>
      <trkpt lat="67.858589" lon="20.251474">
        <ele>570.091</ele>
        <time>1970-01-01T01:00:00Z</time>
      </trkpt>
      <trkpt lat="67.85864" lon="20.251279">
        <ele>570.273</ele>
        <time>1970-01-01T01:00:00Z</time>
      </trkpt>
      <trkpt lat="67.858697" lon="20.251124">
        <ele>570.455</ele>
        <time>1970-01-01T01:00:00Z</time>
      </trkpt>
      <trkpt lat="67.858753" lon="20.250949">
        <ele>570.545</ele>
        <time>1970-01-01T01:00:00Z</time>
      </trkpt>
      <trkpt lat="67.858809" lon="20.250791">
        <ele>570.636</ele>
        <time>1970-01-01T01:00:00Z</time>
      </trkpt>
      <trkpt lat="67.858871" lon="20.25063">
        <ele>570.727</ele>
        <time>1970-01-01T01:00:00Z</time>
      </trkpt>
      <trkpt lat="67.858935" lon="20.250464">
        <ele>570.818</ele>
        <time>1970-01-01T01:00:00Z</time>
      </trkpt>
      <trkpt lat="67.859006" lon="20.250317">
        <ele>570.909</ele>
        <time>1970-01-01T01:00:00Z</time>
      </trkpt>
      <trkpt lat="67.859088" lon="20.250214">
        <ele>570.818</ele>
        <time>1970-01-01T01:00:00Z</time>
      </trkpt>
      <trkpt lat="67.859148" lon="20.250029">
        <ele>570.727</ele>
        <time>1970-01-01T01:00:00Z</time>
      </trkpt>
      <trkpt lat="67.859214" lon="20.249897">
        <ele>570.727</ele>
        <time>1970-01-01T01:00:00Z</time>
      </trkpt>
      <trkpt lat="67.859274" lon="20.249724">
        <ele>570.636</ele>
        <time>1970-01-01T01:00:00Z</time>
      </trkpt>
      <trkpt lat="67.859343" lon="20.249552">
        <ele>570.636</ele>
        <time>1970-01-01T01:00:00Z</time>
      </trkpt>
      <trkpt lat="67.859403" lon="20.249371">
        <ele>570.636</ele>
        <time>1970-01-01T01:00:00Z</time>
      </trkpt>
      <trkpt lat="67.85949" lon="20.249237">
        <ele>570.727</ele>
        <time>1970-01-01T01:00:00Z</time>
      </trkpt>
      <trkpt lat="67.859546" lon="20.249082">
        <ele>571</ele>
        <time>1970-01-01T01:00:00Z</time>
      </trkpt>
      <trkpt lat="67.85954" lon="20.248849">
        <ele>571.364</ele>
        <time>1970-01-01T01:00:00Z</time>
      </trkpt>
      <trkpt lat="67.859498" lon="20.248666">
        <ele>571.727</ele>
        <time>1970-01-01T01:00:00Z</time>
      </trkpt>
      <trkpt lat="67.859449" lon="20.248491">
        <ele>572</ele>
        <time>1970-01-01T01:00:00Z</time>
      </trkpt>
      <trkpt lat="67.859403" lon="20.2483">
        <ele>572.364</ele>
        <time>1970-01-01T01:00:00Z</time>
      </trkpt>
      <trkpt lat="67.859359" lon="20.248088">
        <ele>572.636</ele>
        <time>1970-01-01T01:00:00Z</time>
      </trkpt>
      <trkpt lat="67.859339" lon="20.247858">
        <ele>572.818</ele>
        <time>1970-01-01T01:00:00Z</time>
      </trkpt>
      <trkpt lat="67.859412" lon="20.247705">
        <ele>572.909</ele>
        <time>1970-01-01T01:00:00Z</time>
      </trkpt>
      <trkpt lat="67.85948" lon="20.247565">
        <ele>572.909</ele>
        <time>1970-01-01T01:00:00Z</time>
      </trkpt>
      <trkpt lat="67.859547" lon="20.247443">
        <ele>572.818</ele>
        <time>1970-01-01T01:00:00Z</time>
      </trkpt>
      <trkpt lat="67.859608" lon="20.247296">
        <ele>572.545</ele>
        <time>1970-01-01T01:00:00Z</time>
      </trkpt>
      <trkpt lat="67.859697" lon="20.247227">
        <ele>572</ele>
        <time>1970-01-01T01:00:00Z</time>
      </trkpt>
      <trkpt lat="67.859785" lon="20.247161">
        <ele>571.273</ele>
        <time>1970-01-01T01:00:00Z</time>
      </trkpt>
      <trkpt lat="67.859864" lon="20.247081">
        <ele>570.364</ele>
        <time>1970-01-01T01:00:00Z</time>
      </trkpt>
      <trkpt lat="67.859956" lon="20.247026">
        <ele>569.455</ele>
        <time>1970-01-01T01:00:00Z</time>
      </trkpt>
      <trkpt lat="67.860037" lon="20.246975">
        <ele>568.545</ele>
        <time>1970-01-01T01:00:00Z</time>
      </trkpt>
      <trkpt lat="67.860137" lon="20.246891">
        <ele>567.636</ele>
        <time>1970-01-01T01:00:00Z</time>
      </trkpt>
      <trkpt lat="67.86023" lon="20.24685">
        <ele>566.727</ele>
        <time>1970-01-01T01:00:00Z</time>
      </trkpt>
      <trkpt lat="67.86031" lon="20.246734">
        <ele>565.909</ele>
        <time>1970-01-01T01:00:00Z</time>
      </trkpt>
      <trkpt lat="67.860391" lon="20.246656">
        <ele>565</ele>
        <time>1970-01-01T01:00:00Z</time>
      </trkpt>
      <trkpt lat="67.86046" lon="20.24653">
        <ele>564.091</ele>
        <time>1970-01-01T01:00:00Z</time>
      </trkpt>
      <trkpt lat="67.860531" lon="20.246397">
        <ele>563.182</ele>
        <time>1970-01-01T01:00:00Z</time>
      </trkpt>
      <trkpt lat="67.860609" lon="20.246309">
        <ele>562.273</ele>
        <time>1970-01-01T01:00:00Z</time>
      </trkpt>
      <trkpt lat="67.86068" lon="20.24618">
        <ele>561.455</ele>
        <time>1970-01-01T01:00:00Z</time>
      </trkpt>
      <trkpt lat="67.860751" lon="20.246069">
        <ele>560.818</ele>
        <time>1970-01-01T01:00:00Z</time>
      </trkpt>
      <trkpt lat="67.860838" lon="20.245936">
        <ele>560.364</ele>
        <time>1970-01-01T01:00:00Z</time>
      </trkpt>
      <trkpt lat="67.860911" lon="20.245826">
        <ele>560</ele>
        <time>1970-01-01T01:00:00Z</time>
      </trkpt>
      <trkpt lat="67.860995" lon="20.245737">
        <ele>559.909</ele>
        <time>1970-01-01T01:00:00Z</time>
      </trkpt>
      <trkpt lat="67.861063" lon="20.245558">
        <ele>560</ele>
        <time>1970-01-01T01:00:00Z</time>
      </trkpt>
      <trkpt lat="67.861097" lon="20.245353">
        <ele>560.273</ele>
        <time>1970-01-01T01:00:00Z</time>
      </trkpt>
      <trkpt lat="67.861025" lon="20.245222">
        <ele>560.727</ele>
        <time>1970-01-01T01:00:00Z</time>
      </trkpt>
      <trkpt lat="67.860942" lon="20.245085">
        <ele>561.455</ele>
        <time>1970-01-01T01:00:00Z</time>
      </trkpt>
      <trkpt lat="67.860872" lon="20.244977">
        <ele>562.364</ele>
        <time>1970-01-01T01:00:00Z</time>
      </trkpt>
      <trkpt lat="67.860802" lon="20.244826">
        <ele>563.545</ele>
        <time>1970-01-01T01:00:00Z</time>
      </trkpt>
      <trkpt lat="67.860731" lon="20.244663">
        <ele>564.818</ele>
        <time>1970-01-01T01:00:00Z</time>
      </trkpt>
      <trkpt lat="67.86066" lon="20.244494">
        <ele>566.182</ele>
        <time>1970-01-01T01:00:00Z</time>
      </trkpt>
      <trkpt lat="67.860594" lon="20.244336">
        <ele>567.545</ele>
        <time>1970-01-01T01:00:00Z</time>
      </trkpt>
      <trkpt lat="67.860532" lon="20.244168">
        <ele>568.909</ele>
        <time>1970-01-01T01:00:00Z</time>
      </trkpt>
      <trkpt lat="67.860464" lon="20.244015">
        <ele>570.182</ele>
        <time>1970-01-01T01:00:00Z</time>
      </trkpt>
      <trkpt lat="67.860431" lon="20.243816">
        <ele>571.364</ele>
        <time>1970-01-01T01:00:00Z</time>
      </trkpt>
      <trkpt lat="67.860395" lon="20.243603">
        <ele>572.455</ele>
        <time>1970-01-01T01:00:00Z</time>
      </trkpt>
      <trkpt lat="67.860352" lon="20.243415">
        <ele>573.455</ele>
        <time>1970-01-01T01:00:00Z</time>
      </trkpt>
      <trkpt lat="67.860311" lon="20.24318">
        <ele>574.273</ele>
        <time>1970-01-01T01:00:00Z</time>
      </trkpt>
      <trkpt lat="67.86028" lon="20.242967">
        <ele>575.091</ele>
        <time>1970-01-01T01:00:00Z</time>
      </trkpt>
      <trkpt lat="67.860282" lon="20.242726">
        <ele>575.727</ele>
        <time>1970-01-01T01:00:00Z</time>
      </trkpt>
      <trkpt lat="67.860282" lon="20.242506">
        <ele>576.273</ele>
        <time>1970-01-01T01:00:00Z</time>
      </trkpt>
      <trkpt lat="67.860299" lon="20.242271">
        <ele>576.818</ele>
        <time>1970-01-01T01:00:00Z</time>
      </trkpt>
      <trkpt lat="67.860305" lon="20.242038">
        <ele>577.273</ele>
        <time>1970-01-01T01:00:00Z</time>
      </trkpt>
      <trkpt lat="67.860307" lon="20.241811">
        <ele>577.636</ele>
        <time>1970-01-01T01:00:00Z</time>
      </trkpt>
      <trkpt lat="67.860286" lon="20.241596">
        <ele>577.818</ele>
        <time>1970-01-01T01:00:00Z</time>
      </trkpt>
      <trkpt lat="67.860269" lon="20.241384">
        <ele>578.091</ele>
        <time>1970-01-01T01:00:00Z</time>
      </trkpt>
      <trkpt lat="67.860282" lon="20.241171">
        <ele>578.273</ele>
        <time>1970-01-01T01:00:00Z</time>
      </trkpt>
      <trkpt lat="67.860299" lon="20.240951">
        <ele>578.455</ele>
        <time>1970-01-01T01:00:00Z</time>
      </trkpt>
      <trkpt lat="67.860342" lon="20.240769">
        <ele>578.636</ele>
        <time>1970-01-01T01:00:00Z</time>
      </trkpt>
      <trkpt lat="67.860363" lon="20.240535">
        <ele>578.727</ele>
        <time>1970-01-01T01:00:00Z</time>
      </trkpt>
      <trkpt lat="67.860362" lon="20.240301">
        <ele>578.818</ele>
        <time>1970-01-01T01:00:00Z</time>
      </trkpt>
      <trkpt lat="67.860379" lon="20.240067">
        <ele>578.909</ele>
        <time>1970-01-01T01:00:00Z</time>
      </trkpt>
      <trkpt lat="67.860404" lon="20.239827">
        <ele>578.909</ele>
        <time>1970-01-01T01:00:00Z</time>
      </trkpt>
      <trkpt lat="67.860422" lon="20.239609">
        <ele>578.909</ele>
        <time>1970-01-01T01:00:00Z</time>
      </trkpt>
      <trkpt lat="67.860446" lon="20.239403">
        <ele>578.909</ele>
        <time>1970-01-01T01:00:00Z</time>
      </trkpt>
      <trkpt lat="67.860471" lon="20.239195">
        <ele>579.091</ele>
        <time>1970-01-01T01:00:00Z</time>
      </trkpt>
      <trkpt lat="67.860433" lon="20.238988">
        <ele>579.182</ele>
        <time>1970-01-01T01:00:00Z</time>
      </trkpt>
      <trkpt lat="67.860385" lon="20.238784">
        <ele>579.273</ele>
        <time>1970-01-01T01:00:00Z</time>
      </trkpt>
      <trkpt lat="67.860383" lon="20.23855">
        <ele>579.455</ele>
        <time>1970-01-01T01:00:00Z</time>
      </trkpt>
      <trkpt lat="67.860366" lon="20.238334">
        <ele>579.545</ele>
        <time>1970-01-01T01:00:00Z</time>
      </trkpt>
      <trkpt lat="67.860337" lon="20.238117">
        <ele>579.636</ele>
        <time>1970-01-01T01:00:00Z</time>
      </trkpt>
      <trkpt lat="67.860323" lon="20.237886">
        <ele>579.818</ele>
        <time>1970-01-01T01:00:00Z</time>
      </trkpt>
      <trkpt lat="67.860334" lon="20.237649">
        <ele>580</ele>
        <time>1970-01-01T01:00:00Z</time>
      </trkpt>
      <trkpt lat="67.860346" lon="20.237423">
        <ele>580.182</ele>
        <time>1970-01-01T01:00:00Z</time>
      </trkpt>
      <trkpt lat="67.860369" lon="20.237192">
        <ele>580.455</ele>
        <time>1970-01-01T01:00:00Z</time>
      </trkpt>
      <trkpt lat="67.860372" lon="20.236972">
        <ele>580.818</ele>
        <time>1970-01-01T01:00:00Z</time>
      </trkpt>
      <trkpt lat="67.860364" lon="20.236754">
        <ele>581.091</ele>
        <time>1970-01-01T01:00:00Z</time>
      </trkpt>
      <trkpt lat="67.860386" lon="20.236544">
        <ele>581.455</ele>
        <time>1970-01-01T01:00:00Z</time>
      </trkpt>
      <trkpt lat="67.860387" lon="20.236299">
        <ele>581.818</ele>
        <time>1970-01-01T01:00:00Z</time>
      </trkpt>
      <trkpt lat="67.860363" lon="20.236058">
        <ele>582.091</ele>
        <time>1970-01-01T01:00:00Z</time>
      </trkpt>
      <trkpt lat="67.860313" lon="20.235864">
        <ele>582.545</ele>
        <time>1970-01-01T01:00:00Z</time>
      </trkpt>
      <trkpt lat="67.860272" lon="20.235674">
        <ele>583.091</ele>
        <time>1970-01-01T01:00:00Z</time>
      </trkpt>
      <trkpt lat="67.860241" lon="20.235425">
        <ele>583.545</ele>
        <time>1970-01-01T01:00:00Z</time>
      </trkpt>
      <trkpt lat="67.860225" lon="20.235188">
        <ele>584</ele>
        <time>1970-01-01T01:00:00Z</time>
      </trkpt>
      <trkpt lat="67.860218" lon="20.234971">
        <ele>584.455</ele>
        <time>1970-01-01T01:00:00Z</time>
      </trkpt>
      <trkpt lat="67.860191" lon="20.234739">
        <ele>584.909</ele>
        <time>1970-01-01T01:00:00Z</time>
      </trkpt>
      <trkpt lat="67.860159" lon="20.234502">
        <ele>585.364</ele>
        <time>1970-01-01T01:00:00Z</time>
      </trkpt>
      <trkpt lat="67.860144" lon="20.234274">
        <ele>585.909</ele>
        <time>1970-01-01T01:00:00Z</time>
      </trkpt>
      <trkpt lat="67.860133" lon="20.234025">
        <ele>586.364</ele>
        <time>1970-01-01T01:00:00Z</time>
      </trkpt>
      <trkpt lat="67.86009" lon="20.23381">
        <ele>586.909</ele>
        <time>1970-01-01T01:00:00Z</time>
      </trkpt>
      <trkpt lat="67.860044" lon="20.233613">
        <ele>587.455</ele>
        <time>1970-01-01T01:00:00Z</time>
      </trkpt>
      <trkpt lat="67.859984" lon="20.233465">
        <ele>588</ele>
        <time>1970-01-01T01:00:00Z</time>
      </trkpt>
      <trkpt lat="67.859905" lon="20.233374">
        <ele>588.455</ele>
        <time>1970-01-01T01:00:00Z</time>
      </trkpt>
      <trkpt lat="67.859827" lon="20.233288">
        <ele>588.909</ele>
        <time>1970-01-01T01:00:00Z</time>
      </trkpt>
      <trkpt lat="67.859759" lon="20.233155">
        <ele>589.455</ele>
        <time>1970-01-01T01:00:00Z</time>
      </trkpt>
      <trkpt lat="67.859687" lon="20.23302">
        <ele>590</ele>
        <time>1970-01-01T01:00:00Z</time>
      </trkpt>
      <trkpt lat="67.85963" lon="20.232849">
        <ele>590.455</ele>
        <time>1970-01-01T01:00:00Z</time>
      </trkpt>
      <trkpt lat="67.859596" lon="20.232644">
        <ele>590.818</ele>
        <time>1970-01-01T01:00:00Z</time>
      </trkpt>
      <trkpt lat="67.859555" lon="20.232448">
        <ele>591.182</ele>
        <time>1970-01-01T01:00:00Z</time>
      </trkpt>
      <trkpt lat="67.859506" lon="20.232259">
        <ele>591.545</ele>
        <time>1970-01-01T01:00:00Z</time>
      </trkpt>
      <trkpt lat="67.859474" lon="20.232029">
        <ele>591.818</ele>
        <time>1970-01-01T01:00:00Z</time>
      </trkpt>
      <trkpt lat="67.85947" lon="20.23179">
        <ele>592.182</ele>
        <time>1970-01-01T01:00:00Z</time>
      </trkpt>
      <trkpt lat="67.85941" lon="20.231613">
        <ele>592.455</ele>
        <time>1970-01-01T01:00:00Z</time>
      </trkpt>
      <trkpt lat="67.859361" lon="20.23141">
        <ele>592.727</ele>
        <time>1970-01-01T01:00:00Z</time>
      </trkpt>
      <trkpt lat="67.859313" lon="20.231226">
        <ele>593</ele>
        <time>1970-01-01T01:00:00Z</time>
      </trkpt>
      <trkpt lat="67.859278" lon="20.231022">
        <ele>593.182</ele>
        <time>1970-01-01T01:00:00Z</time>
      </trkpt>
      <trkpt lat="67.859232" lon="20.230832">
        <ele>593.364</ele>
        <time>1970-01-01T01:00:00Z</time>
      </trkpt>
      <trkpt lat="67.859198" lon="20.230626">
        <ele>593.545</ele>
        <time>1970-01-01T01:00:00Z</time>
      </trkpt>
      <trkpt lat="67.859159" lon="20.230414">
        <ele>593.636</ele>
        <time>1970-01-01T01:00:00Z</time>
      </trkpt>
      <trkpt lat="67.859094" lon="20.230262">
        <ele>593.636</ele>
        <time>1970-01-01T01:00:00Z</time>
      </trkpt>
      <trkpt lat="67.859049" lon="20.230069">
        <ele>593.636</ele>
        <time>1970-01-01T01:00:00Z</time>
      </trkpt>
      <trkpt lat="67.85901" lon="20.229877">
        <ele>593.545</ele>
        <time>1970-01-01T01:00:00Z</time>
      </trkpt>
      <trkpt lat="67.858961" lon="20.229684">
        <ele>593.364</ele>
        <time>1970-01-01T01:00:00Z</time>
      </trkpt>
      <trkpt lat="67.858882" lon="20.22954">
        <ele>593.091</ele>
        <time>1970-01-01T01:00:00Z</time>
      </trkpt>
      <trkpt lat="67.858824" lon="20.22936">
        <ele>592.818</ele>
        <time>1970-01-01T01:00:00Z</time>
      </trkpt>
      <trkpt lat="67.858787" lon="20.229159">
        <ele>592.545</ele>
        <time>1970-01-01T01:00:00Z</time>
      </trkpt>
      <trkpt lat="67.858724" lon="20.228998">
        <ele>592.182</ele>
        <time>1970-01-01T01:00:00Z</time>
      </trkpt>
      <trkpt lat="67.858667" lon="20.228822">
        <ele>591.818</ele>
        <time>1970-01-01T01:00:00Z</time>
      </trkpt>
      <trkpt lat="67.858611" lon="20.228628">
        <ele>591.364</ele>
        <time>1970-01-01T01:00:00Z</time>
      </trkpt>
      <trkpt lat="67.858537" lon="20.228443">
        <ele>590.909</ele>
        <time>1970-01-01T01:00:00Z</time>
      </trkpt>
      <trkpt lat="67.858475" lon="20.228278">
        <ele>590.364</ele>
        <time>1970-01-01T01:00:00Z</time>
      </trkpt>
      <trkpt lat="67.858419" lon="20.228088">
        <ele>589.727</ele>
        <time>1970-01-01T01:00:00Z</time>
      </trkpt>
      <trkpt lat="67.858358" lon="20.22792">
        <ele>589.182</ele>
        <time>1970-01-01T01:00:00Z</time>
      </trkpt>
      <trkpt lat="67.858307" lon="20.227736">
        <ele>588.636</ele>
        <time>1970-01-01T01:00:00Z</time>
      </trkpt>
      <trkpt lat="67.858235" lon="20.227631">
        <ele>588.182</ele>
        <time>1970-01-01T01:00:00Z</time>
      </trkpt>
      <trkpt lat="67.858164" lon="20.227527">
        <ele>587.636</ele>
        <time>1970-01-01T01:00:00Z</time>
      </trkpt>
      <trkpt lat="67.858088" lon="20.227393">
        <ele>587.091</ele>
        <time>1970-01-01T01:00:00Z</time>
      </trkpt>
      <trkpt lat="67.857997" lon="20.227386">
        <ele>586.545</ele>
        <time>1970-01-01T01:00:00Z</time>
      </trkpt>
      <trkpt lat="67.857907" lon="20.22738">
        <ele>586</ele>
        <time>1970-01-01T01:00:00Z</time>
      </trkpt>
      <trkpt lat="67.857809" lon="20.227374">
        <ele>585.455</ele>
        <time>1970-01-01T01:00:00Z</time>
      </trkpt>
      <trkpt lat="67.85772" lon="20.227343">
        <ele>584.909</ele>
        <time>1970-01-01T01:00:00Z</time>
      </trkpt>
      <trkpt lat="67.857628" lon="20.227305">
        <ele>584.455</ele>
        <time>1970-01-01T01:00:00Z</time>
      </trkpt>
      <trkpt lat="67.857554" lon="20.227217">
        <ele>584.091</ele>
        <time>1970-01-01T01:00:00Z</time>
      </trkpt>
      <trkpt lat="67.857478" lon="20.227126">
        <ele>583.636</ele>
        <time>1970-01-01T01:00:00Z</time>
      </trkpt>
      <trkpt lat="67.85739" lon="20.227046">
        <ele>583.182</ele>
        <time>1970-01-01T01:00:00Z</time>
      </trkpt>
      <trkpt lat="67.857307" lon="20.226959">
        <ele>582.727</ele>
        <time>1970-01-01T01:00:00Z</time>
      </trkpt>
      <trkpt lat="67.857212" lon="20.226934">
        <ele>582.273</ele>
        <time>1970-01-01T01:00:00Z</time>
      </trkpt>
      <trkpt lat="67.857125" lon="20.226932">
        <ele>581.818</ele>
        <time>1970-01-01T01:00:00Z</time>
      </trkpt>
      <trkpt lat="67.857043" lon="20.226904">
        <ele>581.364</ele>
        <time>1970-01-01T01:00:00Z</time>
      </trkpt>
      <trkpt lat="67.856961" lon="20.226861">
        <ele>580.909</ele>
        <time>1970-01-01T01:00:00Z</time>
      </trkpt>
      <trkpt lat="67.856873" lon="20.226872">
        <ele>580.455</ele>
        <time>1970-01-01T01:00:00Z</time>
      </trkpt>
      <trkpt lat="67.85678" lon="20.226835">
        <ele>580.091</ele>
        <time>1970-01-01T01:00:00Z</time>
      </trkpt>
      <trkpt lat="67.856686" lon="20.226748">
        <ele>579.727</ele>
        <time>1970-01-01T01:00:00Z</time>
      </trkpt>
      <trkpt lat="67.856604" lon="20.226686">
        <ele>579.273</ele>
        <time>1970-01-01T01:00:00Z</time>
      </trkpt>
      <trkpt lat="67.856511" lon="20.226601">
        <ele>578.909</ele>
        <time>1970-01-01T01:00:00Z</time>
      </trkpt>
      <trkpt lat="67.856438" lon="20.226487">
        <ele>578.545</ele>
        <time>1970-01-01T01:00:00Z</time>
      </trkpt>
      <trkpt lat="67.856359" lon="20.226354">
        <ele>578.182</ele>
        <time>1970-01-01T01:00:00Z</time>
      </trkpt>
      <trkpt lat="67.856276" lon="20.226402">
        <ele>577.909</ele>
        <time>1970-01-01T01:00:00Z</time>
      </trkpt>
      <trkpt lat="67.856189" lon="20.2264">
        <ele>577.7</ele>
        <time>1970-01-01T01:00:00Z</time>
      </trkpt>
      <trkpt lat="67.856106" lon="20.226355">
        <ele>577.556</ele>
        <time>1970-01-01T01:00:00Z</time>
      </trkpt>
      <trkpt lat="67.85602" lon="20.226366">
        <ele>577.375</ele>
        <time>1970-01-01T01:00:00Z</time>
      </trkpt>
      <trkpt lat="67.855938" lon="20.226337">
        <ele>577.286</ele>
        <time>1970-01-01T01:00:00Z</time>
      </trkpt>
      <trkpt lat="67.855914" lon="20.226357">
        <ele>577.167</ele>
        <time>1970-01-01T01:00:00Z</time>
      </trkpt>
    </trkseg>
  </trk>
</gpx>